#datint,netname,site,siteID,timestamp,IntT,BattV,AirT2,AirT,AirT_Avg,AirT_Max,AirT_Min,RH_Avg,RH_Max,RH_Min,EA_Avg,Td_Avg,Td_Max,Td_Min,WindS_Smp,WindS_Avg,WindD_Avg,WindD_SD,WindS_Max,ETo,ETr,SoilT4,SoilT8,SoilVWC8,SolarW_Avg,wetstate_Avg,wetT_Avg,Precip_accum,Precip_WPG,Precip_TB
15min,AgWx,beryljct,423,28APR2018:00:00:00,53.9,13.04,55.2,57.1,55.0,57.2,53.1,41,49,28,0.441,31.4,35.1,24.1,2.74,3.3,218,4.0,4.4,0.00010,0.00018,60.0,58.7,18,0,0,53.1,13.42,0.00,0.00
15min,AgWx,beryljct,423,28APR2018:00:15:00,53.2,13.05,51.1,47.6,52.0,57.4,47.3,42,58,27,0.612,29.2,33.6,23.7,2.806,3.2,159,20,5.3,0.00009,0.00016,59.7,59.2,18,0,0,50.0,13.42,0.00,0.00
15min,AgWx,beryljct,423,28APR2018:00:30:00,52.0,13.04,49.0,50.3,48.5,50.5,46.3,48,63,34,0.574,29.6,35.9,22.1,4.121,3.5,195,14,4.6,0.00007,0.00012,59.5,58.6,18,0,0,46.7,13.42,0.00,0.00
15min,AgWx,beryljct,423,28APR2018:00:45:00,51.1,13.03,51.5,53.3,50.9,53.7,49.0,47,59,36,0.525,31.2,35.7,27.5,4.121,4.0,205,7.8,5.0,0.00012,0.00019,59.2,58.8,18,0,0,48.9,13.42,0.00,0.00
15min,AgWx,beryljct,423,28APR2018:01:00:00,50.8,13,52.0,50.9,52.0,53.6,49.6,38,54,33,0.547,27.3,34.0,24.2,3.025,3.4,194,5.8,4.9,0.00011,0.00019,59.0,58.5,18,0,0,49.4,13.42,0.00,0.00
15min,AgWx,beryljct,423,28APR2018:01:15:00,50.5,13.01,52.0,51.9,51.6,52.9,50.2,45,52,40,0.631,31.2,33.3,28.7,3.025,3.4,201,6.9,4.1,0.00008,0.00014,58.7,58.7,18,0,0,48.5,13.43,0.00,0.00
15min,AgWx,beryljct,423,28APR2018:01:30:00,50.3,13,51.7,51.5,51.5,53.5,49.0,39,49,31,0.436,27.1,32.5,23.3,4.889,4.2,191,4.6,5.2,0.00018,0.00028,58.5,59.0,18,0,0,48.8,13.43,0.00,0.00
15min,AgWx,beryljct,423,28APR2018:01:45:00,49.8,12.99,49.5,50.1,49.4,51.5,47.4,47,55,34,0.642,29.8,33.8,23.9,5.239,4.7,201,8.7,5.5,0.00016,0.00024,58.2,58.9,18,0,0,47.5,13.43,0.00,0.00
15min,AgWx,beryljct,423,28APR2018:02:00:00,49.9,12.99,52.9,53.7,52.2,54.2,50.1,42,51,38,0.573,30.0,32.9,28.3,6.664,5.8,206,4.1,6.9,0.00028,0.00039,58.0,58.8,18,0,0,49.7,13.43,0.00,0.00
15min,AgWx,beryljct,423,28APR2018:02:15:00,50.5,12.98,54.1,55.2,53.7,55.2,52.9,40,47,31,0.465,29.6,33.6,24.6,4.998,5.2,205,4.3,6.2,0.00027,0.00038,57.7,58.4,18,0,0,51.2,13.43,0.00,0.00
15min,AgWx,beryljct,423,28APR2018:02:30:00,50.9,12.96,54.8,55.0,54.6,56.1,52.5,35,45,27,0.577,27.5,33.6,22.2,2.938,3.8,206,4.8,4.9,0.00018,0.00029,57.5,58.4,18,0,0,51.4,13.42,0.00,0.00
15min,AgWx,beryljct,423,28APR2018:02:45:00,50.7,12.97,53.1,51.6,53.2,55.0,51.3,39,46,28,0.561,29.0,32.4,22.5,2.609,2.8,212,0.7,3.8,0.00005,0.00012,57.3,58.0,18,0,0,50.5,13.43,0.00,0.00
15min,AgWx,beryljct,423,28APR2018:03:00:00,50.0,12.96,49.9,49.4,49.9,52.6,47.9,44,50,38,0.516,29.0,31.4,26.5,4.472,3.4,221,12,4.6,0.00008,0.00014,57.0,58.2,18,0,0,48.0,13.43,0.00,0.00
15min,AgWx,beryljct,423,28APR2018:03:15:00,49.1,12.95,48.5,48.8,48.4,49.6,47.5,46,51,42,0.575,28.5,30.5,27.0,2.433,3.8,237,1.0,4.9,0.00010,0.00017,56.8,58.4,18,0,0,46.5,13.43,0.00,0.00
15min,AgWx,beryljct,423,28APR2018:03:30:00,48.2,12.95,48.3,47.8,48.1,49.4,47.2,49,58,35,0.401,29.4,34.3,21.3,1.381,2.2,223,1.8,3.4,-0.00005,-0.00004,56.6,58.0,18,0,0,45.6,13.43,0.00,0.00
15min,AgWx,beryljct,423,28APR2018:03:45:00,47.1,12.93,46.7,47.0,46.4,47.7,45.5,39,43,36,0.426,23.0,25.5,21.6,0.373,0.4,223,0.0,1.4,-0.00028,-0.00041,56.4,58.2,18,0,0,43.0,13.43,0.00,0.00
15min,AgWx,beryljct,423,28APR2018:04:00:00,46.1,12.93,45.8,45.0,45.7,49.1,42.1,48,62,35,0.486,26.4,30.4,22.5,3.902,2.9,161,44,5.2,0.00002,0.00005,56.1,58.1,18,0,0,42.5,13.43,0.00,0.00
15min,AgWx,beryljct,423,28APR2018:04:15:00,45.1,12.89,44.5,43.4,44.4,46.5,42.7,52,58,45,0.510,27.9,29.7,25.6,1.206,2.3,138,4.5,4.7,-0.00004,-0.00003,55.9,58.0,18,0,0,42.1,13.43,0.00,0.00
15min,AgWx,beryljct,423,28APR2018:04:30:00,44.4,12.92,45.9,45.3,45.3,46.1,43.4,48,54,46,0.529,27.0,28.5,26.3,0,0.6,143,0.4,2.1,-0.00025,-0.00036,55.7,57.9,18,0,0,41.0,13.43,0.00,0.00
15min,AgWx,beryljct,423,28APR2018:04:45:00,43.8,12.91,44.2,43.1,44.1,45.4,42.6,56,61,51,0.478,29.2,30.2,26.0,4.341,1.2,35,75,4.5,-0.00017,-0.00022,55.5,57.8,18,0,0,40.9,13.43,0.00,0.00
15min,AgWx,beryljct,423,28APR2018:05:00:00,43.2,12.9,41.2,41.7,41.0,43.0,39.7,50,57,44,0.434,23.8,26.3,20.6,3.42,3.8,315,1.8,5.3,0.00006,0.00011,55.3,57.7,18,0,0,39.6,13.43,0.00,0.00
15min,AgWx,beryljct,423,28APR2018:05:15:00,42.4,12.89,41.4,41.2,41.0,41.7,40.0,49,54,42,0.387,23.0,25.2,20.2,2.433,2.9,316,1.5,4.0,0.00001,0.00005,55.1,57.3,18,0,0,39.1,13.43,0.00,0.00
15min,AgWx,beryljct,423,28APR2018:05:30:00,41.9,12.89,41.6,40.5,41.3,42.2,40.5,43,46,41,0.372,20.7,22.1,19.9,3.442,1.4,318,1.4,3.4,-0.00012,-0.00015,54.8,57.5,18,0,0,39.1,13.43,0.00,0.00
15min,AgWx,beryljct,423,28APR2018:05:45:00,41.1,12.89,37.3,36.6,37.3,40.3,36.1,54,58,44,0.379,21.9,23.1,20.2,2.85,2.9,326,3.2,4.2,-0.00000,0.00002,54.6,57.1,18,0,0,36.4,13.43,0.00,0.00
15min,AgWx,beryljct,423,28APR2018:06:00:00,40.2,12.87,39.3,39.1,38.6,40.2,36.8,49,55,43,0.408,21.1,23.0,19.2,1.337,2.7,323,0.2,3.6,0.00027,0.00046,54.4,57.3,18,0,0,36.3,13.43,0.00,0.00
15min,AgWx,beryljct,423,28APR2018:06:15:00,39.6,12.87,38.9,39.7,38.4,39.7,36.4,55,68,48,0.435,23.7,27.3,21.0,0.285,0.8,290,45,1.8,0.00008,0.00015,54.2,57.2,18,0,0,35.8,13.43,0.00,0.00
15min,AgWx,beryljct,423,28APR2018:06:30:00,39.2,12.85,38.2,35.5,38.2,41.0,35.2,58,70,47,0.462,24.6,26.4,22.6,5.853,1.7,159,35,6.9,0.00014,0.00025,54.0,57.1,18,0,0,36.2,13.43,0.00,0.00
15min,AgWx,beryljct,423,28APR2018:06:45:00,38.5,12.86,35.3,34.5,35.1,36.8,34.2,66,71,57,0.456,24.9,25.6,23.0,3.486,3.4,153,11,6.5,0.00022,0.00037,53.8,57.0,18,4,0,35.5,13.43,0.00,0.00
15min,AgWx,beryljct,423,28APR2018:07:00:00,37.9,12.88,34.4,34.6,34.0,35.1,33.3,68,73,60,0.462,24.7,25.6,22.6,4.099,1.5,174,13,4.2,0.00019,0.00027,53.6,56.6,18,25,0,37.2,13.43,0.00,0.00
15min,AgWx,beryljct,423,28APR2018:07:15:00,37.6,12.89,35.2,35.0,34.7,35.2,34.0,70,76,64,0.497,25.7,28.0,23.6,0.46,1.4,90,3.5,5.3,0.00033,0.00041,53.4,56.8,18,57,0,42.7,13.43,0.00,0.00
15min,AgWx,beryljct,423,28APR2018:07:30:00,38.0,12.87,37.4,38.4,36.7,38.7,35.0,66,73,57,0.538,26.5,28.9,24.6,0.658,1.5,166,34,2.7,0.00048,0.00058,53.1,56.7,18,98,0,50.4,13.43,0.00,0.00
15min,AgWx,beryljct,423,28APR2018:07:45:00,39.6,12.89,40.1,41.8,39.5,41.8,37.9,67,71,59,0.587,29.6,31.7,26.0,0,0.3,178,0.0,1.8,0.00063,0.00069,52.9,56.6,18,146,0,59.5,13.43,0.00,0.00
15min,AgWx,beryljct,423,28APR2018:08:00:00,41.8,12.9,42.4,43.1,42.0,43.1,41.5,65,70,56,0.527,30.9,32.4,28.3,0.592,0.6,156,10,2.3,0.00088,0.00097,52.8,56.5,18,194,0,66.4,13.43,0.00,0.00
15min,AgWx,beryljct,423,28APR2018:08:15:00,44.3,12.92,44.2,45.0,43.8,45.0,43.0,61,65,55,0.604,31.2,33.4,28.3,0,0.2,148,0.0,1.2,0.00112,0.00121,52.6,56.4,18,245,0,72.0,13.43,0.00,0.00
15min,AgWx,beryljct,423,28APR2018:08:30:00,46.9,12.98,46.6,47.9,46.1,47.9,44.9,57,66,47,0.550,31.8,34.8,28.3,1.644,0.9,137,6.3,2.3,0.00145,0.00161,52.5,56.2,18,300,0,75.8,13.42,0.00,0.00
15min,AgWx,beryljct,423,28APR2018:08:45:00,49.8,13.1,50.5,51.7,50.1,51.7,47.9,47,55,42,0.572,30.4,34.0,28.2,0,0.7,132,0.0,1.7,0.00182,0.00200,52.4,56.1,18,355,0,79.2,13.42,0.00,0.00
15min,AgWx,beryljct,423,28APR2018:09:00:00,53.0,13.32,54.7,56.8,54.1,56.9,51.7,40,48,30,0.576,30.4,34.1,25.5,0,0.5,126,4.6,1.2,0.00221,0.00241,52.3,55.5,17,412,0,83.1,13.42,0.00,0.00
15min,AgWx,beryljct,423,28APR2018:09:15:00,56.2,13.66,57.7,58.1,57.5,58.1,56.6,33,38,29,0.626,28.8,32.6,25.3,1.841,1.6,68,26,4.7,0.00273,0.00311,52.2,55.9,17,467,0,86.2,13.42,0.00,0.00
15min,AgWx,beryljct,423,28APR2018:09:30:00,59.5,14.31,60.5,60.9,60.2,61.6,58.1,30,41,25,0.482,28.1,34.5,24.4,0.57,0.5,54,1.7,1.9,0.00301,0.00328,52.2,55.8,17,521,0,97.3,13.41,0.00,0.00
15min,AgWx,beryljct,423,28APR2018:09:45:00,62.4,14.27,62.8,65.7,62.4,65.7,61.0,28,36,20,0.446,28.5,34.5,23.9,16.09,3.8,48,67,17.8,0.00373,0.00448,52.3,55.7,17,572,0,95.4,13.41,0.00,0.00
15min,AgWx,beryljct,423,28APR2018:10:00:00,64.9,14.19,66.7,67.2,66.6,67.3,65.7,19,24,17,0.434,23.2,27.8,20.0,11.29,16.0,180,10,22.3,0.00551,0.00784,52.4,55.6,17,624,0,81.8,13.41,0.00,0.00
15min,AgWx,beryljct,423,28APR2018:10:15:00,67.0,14.15,68.1,68.5,68.0,68.6,67.3,18,21,15,0.415,22.6,26.4,18.6,16.86,16.3,178,9.6,23.2,0.00591,0.00837,52.5,55.5,17,671,0,82.8,13.40,0.00,0.00
15min,AgWx,beryljct,423,28APR2018:10:30:00,68.2,14.15,68.0,68.3,68.1,68.6,67.7,16,20,14,0.364,20.1,25.3,17.5,18.59,20.4,176,8.8,28.2,0.00649,0.00937,52.6,55.4,17,717,0,81.5,13.40,0.00,0.00
15min,AgWx,beryljct,423,28APR2018:10:45:00,69.1,14.13,68.7,68.8,68.7,69.1,68.1,16,18,14,0.396,20.9,24.0,17.9,18.96,19.4,183,10,26.1,0.00668,0.00953,52.8,55.3,17,759,0,82.8,13.40,0.00,0.00
15min,AgWx,beryljct,423,28APR2018:11:00:00,69.8,14.11,69.0,69.6,69.0,69.6,68.6,16,18,14,0.389,20.9,23.7,18.3,22.08,20.2,190,9.2,27.4,0.00693,0.00987,53.1,55.3,17,798,0,83.7,13.39,0.00,0.00
15min,AgWx,beryljct,423,28APR2018:11:15:00,70.4,14.09,69.4,69.6,69.5,70.1,68.9,16,19,14,0.373,21.5,25.7,17.9,18.92,20.0,176,10,26.4,0.00715,0.01011,53.3,55.2,17,837,0,83.8,13.39,0.00,0.00
15min,AgWx,beryljct,423,28APR2018:11:30:00,71.0,14.06,70.3,70.3,70.3,70.9,69.3,14,17,11,0.409,19.1,23.2,14.2,15.28,20.9,185,9.9,29.1,0.00752,0.01068,53.6,55.2,17,872,0,84.6,13.40,0.00,0.00
15min,AgWx,beryljct,423,28APR2018:11:45:00,71.6,13.64,70.4,70.1,70.5,71.4,70.0,15,16,12,0.379,20.0,22.9,16.1,20.94,20.5,192,11,27.3,0.00764,0.01076,54.0,55.2,17,902,0,85.7,13.39,0.00,0.00
15min,AgWx,beryljct,423,28APR2018:12:00:00,71.7,13.73,70.2,70.3,70.3,70.8,70.0,15,17,13,0.387,20.2,23.7,17.1,20.72,21.4,197,12,29.6,0.00777,0.01096,54.3,55.2,17,928,0,85.6,13.39,0.00,0.00
15min,AgWx,beryljct,423,28APR2018:12:15:00,71.9,13.73,70.7,72.3,70.7,72.3,70.0,15,18,13,0.416,21.3,25.6,17.1,13.57,20.9,192,14,28.5,0.00786,0.01102,54.7,55.2,17,951,0,85.9,13.39,0.00,0.00
15min,AgWx,beryljct,423,28APR2018:12:30:00,72.4,13.67,71.2,71.3,71.4,72.3,70.8,14,17,12,0.333,18.9,24.4,14.9,19.97,21.8,184,13,27.5,0.00818,0.01151,55.1,55.2,17,974,0,85.6,13.39,0.00,0.00
15min,AgWx,beryljct,423,28APR2018:12:45:00,72.8,13.62,71.7,72.7,71.8,72.9,71.1,14,17,12,0.341,20.3,25.7,16.1,20.8,19.1,197,10,26.8,0.00809,0.01119,55.6,55.3,17,989,0,87.8,13.39,0.00,0.00
15min,AgWx,beryljct,423,28APR2018:13:00:00,73.3,13.64,72.2,72.6,72.4,73.5,71.4,14,17,12,0.386,20.8,24.5,16.5,24.03,18.9,194,15,24.6,0.00819,0.01131,56.0,55.3,17,998,0,88.4,13.39,0.00,0.00
15min,AgWx,beryljct,423,28APR2018:13:15:00,73.6,13.63,72.2,72.2,72.4,73.2,71.5,15,18,12,0.460,21.3,25.7,16.6,16.79,21.6,170,11,28.9,0.00840,0.01176,56.5,55.4,17,1007,0,85.3,13.39,0.00,0.00
15min,AgWx,beryljct,423,28APR2018:13:30:00,73.8,13.64,72.8,73.3,72.9,73.6,72.1,13,17,11,0.342,18.8,24.6,15.0,21.26,22.3,175,11,29.6,0.00859,0.01208,56.9,55.5,17,1012,0,85.4,13.39,0.00,0.00
15min,AgWx,beryljct,423,28APR2018:13:45:00,74.3,13.61,73.7,73.5,73.8,75.0,72.6,12,16,10,0.329,18.7,25.1,14.7,18.9,19.4,189,13,26.5,0.00856,0.01187,57.4,55.5,17,1013,0,87.7,13.39,0.00,0.00
15min,AgWx,beryljct,423,28APR2018:14:00:00,74.7,13.61,73.0,73.5,73.2,74.0,72.4,12,16,9.2,0.374,16.7,24.2,11.6,19.36,20.0,198,9.8,27.4,0.00853,0.01188,57.9,55.6,17,1011,0,87.1,13.39,0.00,0.00
15min,AgWx,beryljct,423,28APR2018:14:15:00,74.8,13.59,72.7,72.3,73.0,73.9,72.2,13,17,9.6,0.334,19.1,26.1,12.5,17.01,18.9,204,11,25.9,0.00834,0.01153,58.3,55.8,17,1002,0,87.2,13.39,0.00,0.00
15min,AgWx,beryljct,423,28APR2018:14:30:00,75.1,13.59,72.9,72.7,73.0,74.2,72.2,13,17,11,0.339,19.8,27.2,15.6,20.8,17.7,201,14,24.2,0.00828,0.01134,58.8,55.9,17,1009,0,87.3,13.39,0.00,0.00
15min,AgWx,beryljct,423,28APR2018:14:45:00,74.9,13.62,71.4,70.9,71.7,72.7,70.9,13,16,11,0.305,18.2,24.0,14.0,18.33,19.5,206,12,27.3,0.00708,0.01020,59.3,56.0,17,748,0,82.2,13.40,0.01,0.00
15min,AgWx,beryljct,423,28APR2018:15:00:00,74.5,13.6,71.7,72.2,71.7,72.6,70.8,12,15,9.6,0.291,15.8,21.1,11.7,23.61,19.3,198,13,28.1,0.00706,0.01019,59.7,56.1,17,743,0,82.3,13.39,0.00,0.00
15min,AgWx,beryljct,423,28APR2018:15:15:00,74.4,13.61,71.7,71.3,71.9,73.1,71.0,12,16,9.5,0.297,16.6,22.0,11.6,24.86,20.0,207,12,31.0,0.00709,0.01029,60.1,56.3,17,742,0,83.2,13.39,0.00,0.00
15min,AgWx,beryljct,423,28APR2018:15:30:00,74.2,13.65,71.5,71.3,71.6,72.3,70.9,11,13,8.7,0.250,13.8,18.7,9.4,25.28,22.6,207,11,28.9,0.00700,0.01044,60.4,56.4,17,666,0,80.9,13.40,0.01,0.00
15min,AgWx,beryljct,423,28APR2018:15:45:00,73.7,13.7,71.1,71.2,71.2,71.5,70.7,11,15,8.8,0.274,13.6,20.8,9.0,25.08,21.0,208,17,30.4,0.00633,0.00958,60.7,56.6,17,547,0,78.3,13.40,0.00,0.00
15min,AgWx,beryljct,423,28APR2018:16:00:00,74.2,13.59,72.8,73.3,72.8,74.0,71.1,11,14,9.1,0.339,15.4,20.9,11.4,20.15,21.4,215,9.6,30.0,0.00829,0.01176,60.9,56.7,17,951,0,84.8,13.39,0.00,0.00
15min,AgWx,beryljct,423,28APR2018:16:15:00,75.1,13.54,73.0,73.1,73.1,73.9,72.7,11,13,8.7,0.252,14.5,20.5,10.0,18.26,18.7,211,12,26.9,0.00761,0.01083,61.0,56.9,17,843,0,83.1,13.39,0.00,0.00
15min,AgWx,beryljct,423,28APR2018:16:30:00,75.4,13.57,72.7,72.9,72.9,73.6,72.1,9.2,12,7.4,0.254,11.2,17.8,6.0,14.53,19.5,208,10,27.4,0.00734,0.01065,61.2,57.0,17,774,0,80.6,13.39,0.00,0.00
15min,AgWx,beryljct,423,28APR2018:16:45:00,75.4,13.58,72.9,72.9,73.0,73.9,72.4,8.5,11,6.9,0.256,9.5,14.5,4.7,15.48,19.4,203,10,27.5,0.00713,0.01044,61.2,57.2,17,725,0,79.6,13.39,0.00,0.00
15min,AgWx,beryljct,423,28APR2018:17:00:00,75.3,13.62,72.2,72.3,72.3,73.2,71.8,9.7,13,7.9,0.220,12.0,18.1,7.8,21.26,18.9,219,11,26.9,0.00671,0.00987,61.3,57.3,17,678,0,77.7,13.39,0.00,0.00
15min,AgWx,beryljct,423,28APR2018:17:15:00,75.0,13.58,72.1,72.1,72.2,72.9,71.9,8.7,10,7.3,0.227,9.5,13.3,6.0,16.4,19.2,204,9.6,27.4,0.00655,0.00977,61.5,57.5,17,633,0,77.1,13.40,0.00,0.00
15min,AgWx,beryljct,423,28APR2018:17:30:00,74.8,13.57,71.7,71.6,71.9,72.3,71.3,9.2,12,7.5,0.199,10.4,17.4,5.9,26.17,18.9,207,12,26.2,0.00620,0.00933,61.6,57.6,17,583,0,75.8,13.40,0.00,0.00
15min,AgWx,beryljct,423,28APR2018:17:45:00,74.5,13.58,71.7,71.2,71.8,72.1,71.2,8.5,11,7.4,0.244,8.6,13.5,5.5,18.35,18.6,194,12,24.8,0.00594,0.00906,61.8,57.7,17,531,0,74.8,13.40,0.00,0.00
15min,AgWx,beryljct,423,28APR2018:18:00:00,74.0,13.58,71.1,71.6,71.1,71.7,70.3,9.7,12,8.3,0.310,11.1,16.6,7.5,20.74,17.1,205,14,27.0,0.00538,0.00823,62.0,57.8,17,479,0,73.5,13.40,0.00,0.00
15min,AgWx,beryljct,423,28APR2018:18:15:00,73.6,13.63,70.5,69.9,70.6,71.7,69.9,10,13,8.5,0.292,12.1,16.2,8.6,23.3,20.0,218,9.3,26.9,0.00538,0.00847,62.2,58.0,17,425,0,72.2,13.40,0.00,0.00
15min,AgWx,beryljct,423,28APR2018:18:30:00,72.9,13.63,69.9,69.5,69.9,70.3,69.5,11,15,9.4,0.279,12.6,19.4,9.7,17.82,18.9,211,11,27.2,0.00493,0.00786,62.3,58.1,17,372,0,70.7,13.40,0.00,0.00
15min,AgWx,beryljct,423,28APR2018:18:45:00,72.3,13.64,69.7,69.8,69.6,70.1,69.1,11,13,9.3,0.250,12.3,15.9,9.2,19.91,19.3,203,12,26.1,0.00467,0.00760,62.4,58.2,17,317,0,69.4,13.40,0.00,0.00
15min,AgWx,beryljct,423,28APR2018:19:00:00,71.7,13.46,69.3,69.1,69.4,69.8,68.9,11,13,9.7,0.252,12.6,16.9,9.9,20.37,18.8,201,8.3,27.4,0.00433,0.00718,62.5,58.3,17,262,0,68.7,13.40,0.00,0.00
15min,AgWx,beryljct,423,28APR2018:19:15:00,71.1,13.35,68.8,68.7,68.8,69.2,68.5,12,14,10,0.271,13.5,17.1,10.4,14.82,16.4,205,9.6,24.4,0.00370,0.00626,62.6,58.4,17,209,0,67.8,13.40,0.00,0.00
15min,AgWx,beryljct,423,28APR2018:19:30:00,70.4,13.27,68.4,68.3,68.4,68.8,67.9,12,13,11,0.269,13.1,16.1,10.9,21.09,17.3,199,8.1,22.4,0.00179,0.00211,62.6,58.5,18,159,0,67.2,13.40,0.00,0.00
15min,AgWx,beryljct,423,28APR2018:19:45:00,69.6,13.26,67.7,67.4,67.7,68.4,67.2,12,13,11,0.270,12.5,14.7,10.8,16.7,16.9,193,8.8,23.5,0.00168,0.00200,62.6,58.6,18,112,0,66.5,13.40,0.00,0.00
15min,AgWx,beryljct,423,28APR2018:20:00:00,68.6,13.24,66.6,66.2,66.7,67.5,66.1,12,14,11,0.284,13.3,15.8,11.4,11.18,13.8,196,8.4,18.9,0.00144,0.00175,62.5,58.7,18,67,0,64.9,13.40,0.00,0.00
15min,AgWx,beryljct,423,28APR2018:20:15:00,67.4,13.21,65.8,65.1,65.9,66.4,65.1,13,14,11,0.293,13.0,15.2,10.4,10.3,12.4,198,8.6,20.2,0.00127,0.00157,62.4,58.8,18,27,0,63.8,13.40,0.00,0.00
15min,AgWx,beryljct,423,28APR2018:20:30:00,66.2,13.18,64.6,63.9,64.6,65.2,63.9,13,15,12,0.301,12.8,15.2,10.5,8.09,10.7,198,6.9,13.9,0.00108,0.00137,62.3,58.8,18,6,0,62.0,13.40,0.00,0.00
15min,AgWx,beryljct,423,28APR2018:20:45:00,64.8,13.17,63.5,63.6,63.4,63.9,62.7,14,16,12,0.265,13.7,16.3,11.0,12.56,10.3,202,7.6,15.8,0.00100,0.00127,62.1,58.9,18,1,0,60.6,13.40,0.00,0.00
15min,AgWx,beryljct,423,28APR2018:21:00:00,63.8,13.14,62.9,63.0,62.9,63.7,62.3,15,16,13,0.261,14.1,15.9,11.9,12.19,10.2,205,6.2,13.7,0.00098,0.00124,61.9,59.0,18,0,0,60.1,13.40,0.00,0.00
15min,AgWx,beryljct,423,28APR2018:21:15:00,63.2,13.14,63.1,62.6,63.0,63.5,62.4,14,16,13,0.296,13.7,16.1,11.2,9.58,11.7,209,6.5,17.5,0.00108,0.00134,61.7,59.0,18,0,0,60.4,13.40,0.00,0.00
15min,AgWx,beryljct,423,28APR2018:21:30:00,62.6,13.13,62.4,61.9,62.4,62.9,61.9,15,16,14,0.302,14.1,16.1,12.2,9.95,11.3,215,6.6,16.4,0.00103,0.00129,61.5,58.7,18,0,0,59.8,13.40,0.00,0.00
15min,AgWx,beryljct,423,28APR2018:21:45:00,62.0,13.13,61.5,60.7,61.5,62.1,60.6,15,17,14,0.295,14.1,15.9,12.4,11.07,11.0,216,6.8,14.6,0.00098,0.00123,61.2,59.1,18,0,0,59.0,13.40,0.00,0.00
15min,AgWx,beryljct,423,28APR2018:22:00:00,61.4,13.11,61.2,61.3,61.0,61.8,60.5,16,17,15,0.280,14.7,16.7,12.6,13.31,11.0,222,6.6,16.2,0.00096,0.00121,61.0,59.1,18,0,0,58.9,13.41,0.00,0.00
15min,AgWx,beryljct,423,28APR2018:22:15:00,60.9,13.11,60.6,60.0,60.6,61.4,59.9,17,18,15,0.303,15.0,15.8,13.4,11.16,10.6,219,6.5,13.2,0.00093,0.00117,60.8,59.1,18,0,0,58.3,13.40,0.00,0.00
15min,AgWx,beryljct,423,28APR2018:22:30:00,60.3,13.11,60.4,60.4,60.1,60.5,59.8,17,18,16,0.307,14.9,15.8,14.0,9.67,11.1,220,7.3,13.9,0.00094,0.00117,60.6,59.1,18,0,0,57.9,13.41,0.00,0.00
15min,AgWx,beryljct,423,28APR2018:22:45:00,60.2,13.1,61.0,60.9,60.7,61.3,60.0,17,18,15,0.311,15.3,16.6,13.8,12.3,12.2,224,7.2,16.4,0.00101,0.00125,60.3,59.1,18,0,0,58.9,13.41,0.00,0.00
15min,AgWx,beryljct,423,28APR2018:23:00:00,60.2,13.08,61.0,60.7,60.9,61.2,60.5,17,19,16,0.317,15.6,17.6,14.2,12.65,13.0,225,7.3,19.8,0.00105,0.00128,60.1,59.1,18,0,0,59.2,13.40,0.00,0.00
15min,AgWx,beryljct,423,28APR2018:23:15:00,60.1,13.09,60.4,59.7,60.3,60.9,59.7,18,19,16,0.330,16.0,17.6,14.6,10,11.9,227,6.7,16.0,0.00098,0.00121,59.9,59.0,18,0,0,58.5,13.40,0.00,0.00
15min,AgWx,beryljct,423,28APR2018:23:30:00,59.7,13.08,59.4,59.3,59.3,59.8,59.0,18,20,17,0.330,16.3,17.6,14.5,9.56,10.9,224,6.0,15.9,0.00090,0.00112,59.7,59.0,18,0,0,57.5,13.41,0.00,0.00
15min,AgWx,beryljct,423,28APR2018:23:45:00,59.0,13.07,58.6,58.4,58.5,59.2,57.6,19,21,17,0.291,16.5,17.6,14.3,12.01,10.3,222,7.4,13.5,0.00083,0.00105,59.5,59.0,18,0,0,56.4,13.41,0.00,0.00
15min,AgWx,beryljct,423,29APR2018:00:00:00,58.4,13.06,58.0,57.6,57.9,58.6,57.2,19,20,17,0.313,15.8,17.0,14.3,9.76,10.4,221,5.5,15.5,0.00083,0.00104,59.3,58.9,18,0,0,55.9,13.41,0.00,0.00
15min,AgWx,beryljct,423,29APR2018:00:15:00,57.7,13.06,57.2,56.4,57.2,57.7,56.4,19,21,18,0.318,15.8,17.1,14.4,8.44,9.6,218,6.5,12.8,0.00077,0.00097,59.1,58.6,18,0,0,55.0,13.41,0.00,0.00
15min,AgWx,beryljct,423,29APR2018:00:30:00,57.0,13.06,56.3,55.8,56.2,56.8,55.6,20,21,19,0.304,15.5,16.8,14.4,8.59,8.8,213,5.4,11.8,0.00070,0.00090,58.9,58.9,18,0,0,53.6,13.41,0.00,0.00
15min,AgWx,bigpiney,439,28APR2018:00:00:00,47.4,12.83,41.4,41.2,41.8,42.7,41.1,52,60,46,0.466,25.5,29.5,22.7,1.25,3.2,323,40,4.3,0.00003,0.00006,53.1,43.2,54,0,0,0.0,.,0.00,0.00
15min,AgWx,bigpiney,439,28APR2018:00:15:00,46.7,12.82,42.1,41.7,40.9,41.7,40.0,55,61,50,0.457,26.1,27.9,24.3,2.981,2.1,256,34,4.4,-0.00006,-0.00005,52.6,43.1,54,0,0,0.0,.,0.00,0.00
15min,AgWx,bigpiney,439,28APR2018:00:30:00,46.0,12.81,37.8,37.7,39.3,41.8,37.4,63,73,51,0.507,27.7,30.4,24.7,1.469,2.2,215,33,4.7,-0.00007,-0.00007,52.2,43.2,54,0,0,0.0,.,0.00,0.00
15min,AgWx,bigpiney,439,28APR2018:00:45:00,45.2,12.8,41.2,40.6,38.9,40.6,37.6,66,74,53,0.454,28.6,31.4,24.8,1.973,0.7,279,61,2.5,-0.00019,-0.00028,51.8,43.1,54,0,0,0.0,.,0.00,0.00
15min,AgWx,bigpiney,439,28APR2018:01:00:00,44.4,12.79,37.1,37.3,37.8,40.6,36.6,65,70,54,0.456,26.9,28.2,24.5,2.324,2.0,93,50,4.3,-0.00008,-0.00009,51.4,43.1,54,0,0,0.0,.,0.00,0.00
15min,AgWx,bigpiney,439,28APR2018:01:15:00,43.7,12.78,39.7,37.4,36.8,38.0,36.1,69,75,58,0.530,27.5,29.7,24.3,0.658,3.2,226,20,5.0,-0.00003,-0.00002,51.0,43.0,54,0,0,0.0,.,0.00,0.00
15min,AgWx,bigpiney,439,28APR2018:01:30:00,43.3,12.78,38.4,37.7,37.8,38.2,37.5,69,73,66,0.505,28.4,30.1,27.3,2.236,3.0,269,15,4.2,-0.00004,-0.00004,50.6,43.0,54,0,0,0.0,.,0.00,0.00
15min,AgWx,bigpiney,439,28APR2018:01:45:00,43.3,12.76,40.1,39.8,38.9,39.9,37.7,61,66,57,0.474,26.5,27.5,25.7,4.582,4.0,289,12,5.7,0.00003,0.00007,50.3,43.0,54,0,0,0.0,.,0.00,0.00
15min,AgWx,bigpiney,439,28APR2018:02:00:00,43.5,12.76,42.0,41.6,40.4,41.7,39.7,55,58,52,0.470,25.6,26.3,25.1,3.244,3.5,281,23,5.2,0.00003,0.00007,49.9,42.9,54,0,0,0.0,.,0.00,0.00
15min,AgWx,bigpiney,439,28APR2018:02:15:00,43.8,12.74,39.5,38.7,39.2,41.6,38.0,67,71,52,0.558,29.0,30.5,25.5,3.003,3.8,227,13,5.6,0.00000,0.00003,49.5,42.9,54,0,0,0.0,.,0.00,0.00
15min,AgWx,bigpiney,439,28APR2018:02:30:00,43.9,12.74,40.6,39.9,39.5,39.9,38.7,63,76,54,0.453,27.9,32.5,24.7,0.417,1.1,16,56,2.9,-0.00015,-0.00020,49.1,42.8,54,0,0,0.0,.,0.00,0.00
15min,AgWx,bigpiney,439,28APR2018:02:45:00,43.9,12.73,39.5,38.9,39.7,40.9,38.7,59,69,49,0.519,26.4,29.3,23.0,3.113,1.2,139,25,3.3,-0.00014,-0.00018,48.7,42.9,54,0,0,0.0,.,0.00,0.00
15min,AgWx,bigpiney,439,28APR2018:03:00:00,43.7,12.72,36.9,37.9,38.7,39.4,37.5,63,71,56,0.547,27.0,29.3,24.9,2.609,1.2,141,23,2.9,-0.00014,-0.00018,48.4,42.8,54,0,0,0.0,.,0.00,0.00
15min,AgWx,bigpiney,439,28APR2018:03:15:00,43.2,12.7,40.8,38.8,37.6,38.9,36.8,70,76,60,0.519,28.6,30.5,26.1,0.921,1.7,191,35,3.2,-0.00011,-0.00014,48.1,42.7,54,0,0,0.0,.,0.00,0.00
15min,AgWx,bigpiney,439,28APR2018:03:30:00,42.7,12.69,39.9,39.0,38.8,40.2,36.8,63,75,54,0.454,27.2,30.6,24.5,0,1.5,200,65,3.5,-0.00012,-0.00015,47.8,42.7,54,0,0,0.0,.,0.00,0.00
15min,AgWx,bigpiney,439,28APR2018:03:45:00,42.3,12.68,37.8,36.9,37.3,39.2,36.8,75,82,56,0.598,30.1,32.0,24.8,0,0.6,206,38,1.8,-0.00019,-0.00028,47.4,42.6,54,0,0,0.0,.,0.00,0.00
15min,AgWx,bigpiney,439,28APR2018:04:00:00,41.9,12.67,35.5,35.8,37.0,37.7,35.8,75,83,63,0.482,29.8,32.7,25.9,4.034,2.4,213,44,5.0,-0.00009,-0.00011,47.1,42.6,54,0,0,0.0,.,0.00,0.00
15min,AgWx,bigpiney,439,28APR2018:04:15:00,41.4,12.67,35.3,34.4,34.8,35.7,34.1,76,80,68,0.495,27.9,29.4,26.3,4.341,4.0,222,15,4.8,-0.00003,-0.00002,46.9,42.6,54,0,0,0.0,.,0.00,0.00
15min,AgWx,bigpiney,439,28APR2018:04:30:00,40.8,12.66,35.6,35.1,35.0,35.6,34.5,71,76,66,0.513,26.6,27.9,25.5,2.455,3.7,233,13,5.0,-0.00002,-0.00001,46.6,42.5,54,0,0,0.0,.,0.00,0.00
15min,AgWx,bigpiney,439,28APR2018:04:45:00,40.3,12.65,34.3,34.6,35.8,36.5,34.6,73,78,66,0.512,28.1,29.1,26.1,2.959,2.1,233,16,3.2,-0.00009,-0.00011,46.3,42.5,54,0,0,0.0,.,0.00,0.00
15min,AgWx,bigpiney,439,28APR2018:05:00:00,39.8,12.64,35.7,35.5,34.9,36.2,33.6,72,78,65,0.491,26.8,27.6,25.5,0,2.6,251,20,3.9,-0.00006,-0.00007,46.0,42.4,54,0,0,0.0,.,0.00,0.00
15min,AgWx,bigpiney,439,28APR2018:05:15:00,39.6,12.63,34.6,35.3,35.6,36.2,35.3,67,76,60,0.520,25.7,28.7,22.9,1.359,1.6,242,34,3.8,-0.00011,-0.00014,45.7,42.4,54,0,0,0.0,.,0.00,0.00
15min,AgWx,bigpiney,439,28APR2018:05:30:00,39.4,12.61,34.3,34.0,34.0,35.2,33.3,74,77,72,0.498,26.7,28.0,25.9,1.6,1.1,230,43,3.7,-0.00015,-0.00021,45.5,42.4,54,0,0,0.0,.,0.00,0.00
15min,AgWx,bigpiney,439,28APR2018:05:45:00,39.4,12.61,34.5,34.6,35.1,35.8,34.0,73,80,66,0.539,27.2,28.9,25.3,0,1.4,272,79,2.7,-0.00013,-0.00017,45.2,42.3,54,0,0,0.0,.,0.00,0.00
15min,AgWx,bigpiney,439,28APR2018:06:00:00,39.6,12.6,36.2,35.8,34.8,35.8,33.7,74,83,63,0.447,27.1,30.2,24.1,0,3.1,274,55,6.3,-0.00005,-0.00005,44.9,42.3,54,0,0,0.0,.,0.00,0.00
15min,AgWx,bigpiney,439,28APR2018:06:15:00,39.7,12.58,38.2,37.5,36.5,37.5,35.7,62,66,54,0.413,24.5,25.9,22.2,1.403,2.5,297,47,4.4,-0.00004,-0.00004,44.7,42.2,54,1,0,0.0,.,0.00,0.00
15min,AgWx,bigpiney,439,28APR2018:06:30:00,39.9,12.58,35.7,35.3,35.6,37.8,34.7,69,75,54,0.510,26.4,28.1,22.5,1.469,2.1,213,30,4.5,-0.00007,-0.00008,44.4,42.2,54,4,0,0.0,.,0.00,0.00
15min,AgWx,bigpiney,439,28APR2018:06:45:00,39.9,12.59,37.5,37.3,36.7,37.4,35.3,67,74,60,0.461,26.5,28.2,24.4,1.03,0.9,128,81,2.4,-0.00019,-0.00016,44.2,42.2,54,17,0,0.0,.,0.00,0.00